Miscellaneous Local Product
Issued by NWS Hastings, NE

Home | Current Version | Previous Version | Graphics & Text | Print | Product List | Glossary On
Versions: 1 2 3 4 5 6 7 8 9 10 11 12 13 14 15 16 17 18 19 20 21 22 23 24 25 26 27 28 29 30 31 32 33 34 35 36 37 38 39 40 41 42 43 44 45 46 47 48 49 50
155
AXUS43 KGID 250802
MISGRI

GID CWA HOURLY WEATHER ROUNDUP
NATIONAL WEATHER SERVICE HASTINGS NE
300 AM CDT TUE JUL 25 2017

NOTE: "FAIR" INDICATES FEW OR NO CLOUDS BELOW 12,000 FEET WITH NO
SIGNIFICANT WEATHER AND/OR OBSTRUCTIONS TO VISIBILITY.

...SOUTH CENTRAL NEBRASKA...

CITY           SKY/WX    TMP DP  RH WIND       PRES   REMARKS
GRAND ISLAND   CLEAR     75  71  87 S14       29.95F
HASTINGS       CLEAR     75  66  73 S8        29.99S
KEARNEY        CLEAR     74  66  76 S12       29.97S
ORD            CLEAR     76  65  68 S8        29.93F
YORK           PTCLDY    75  73  94 S9        29.98S
AURORA         CLEAR     75  73  91 S12       29.97S
LEXINGTON      PTCLDY    74  58  57 S9        29.97S
HOLDREGE       CLEAR     71  60  68 S9        29.98S
HEBRON         PTCLDY    78  72  82 S8        29.98F

...NEBRASKA PANHANDLE...

CITY           SKY/WX    TMP DP  RH WIND       PRES   REMARKS
CHADRON        PTCLDY    80  52  37 SW12      29.86F
ALLIANCE       PTCLDY    79  57  46 S15G23    29.93F
SCOTTSBLUFF    PTCLDY    81  55  40 S6        29.94S
SIDNEY         PTCLDY    76  59  55 S18G26    30.00F

...WESTERN AND NORTH CENTRAL NEBRASKA...

CITY           SKY/WX    TMP DP  RH WIND       PRES   REMARKS
VALENTINE      CLEAR     76  63  64 S9        29.89F
AINSWORTH      CLEAR     73  66  78 S8        29.91F
ONEILL         CLEAR     75  70  84 S12       29.91R
BROKEN BOW     CLEAR     72  58  61 SE5       29.96S
IMPERIAL       MOCLDY    77  58  51 S9        29.97S
NORTH PLATTE   CLEAR     81  54  39 S12       29.95F
MCCOOK         PTCLDY    79  55  43 S13G22    29.96F

...EASTERN NEBRASKA...

CITY           SKY/WX    TMP DP  RH WIND       PRES   REMARKS
NORFOLK        CLOUDY    75  68  78 S16       29.92F
SO SIOUX CITY  CLOUDY    71  67  87 SE8       29.95F
TEKAMAH        MOCLDY    72  65  78 SE9       29.97R
COLUMBUS       CLOUDY    76  70  82 S14G20    29.95F
ALBION         CLOUDY    73  71  92 S7        29.95F
OMAHA EPPLEY   MOCLDY    76  65  68 S15       29.98F
OFFUTT AFB     PTCLDY    72  66  81 SE8       29.99S
MILLARD        PTCLDY    75  68  78 SE13      29.99S
LINCOLN        PTCLDY    73  67  81 S9        29.98F
NEBRASKA CITY  MOCLDY    71  71  99 S8        30.01S
BEATRICE       CLEAR     75  68  79 SE8       29.99F
FALLS CITY     CLEAR     69  67  93 SE7       30.01S

...NORTHERN KANSAS...

CITY           SKY/WX    TMP DP  RH WIND       PRES   REMARKS
GOODLAND       PTCLDY    72  63  73 S14       30.04S
HILL CITY      PTCLDY    77  60  55 S9        30.00S
NORTON         SUNNY     75  52  43 S12G18    29.98S
PHILLIPSBURG   CLEAR     79  59  50 S8        29.97F
SMITH CENTER     N/A     73  64  73 S9        29.99S
HAYS             N/A     78  64  61 S13       30.01F
RUSSELL        PTCLDY    75  63  66 S10       29.99F
CONCORDIA      CLEAR     77  70  79 S14       29.98F
SALINA         CLEAR     76  68  76 S6        29.99F
TOPEKA         CLEAR     75  70  84 SE5       30.02F



USA.gov is the U.S. government's official web portal to all federal, state and local government web resources and services.